Location: Pinhead Observatory
(34.4473°N, 118.1985°W)
Time: 08:33:08
(UTC-07:00)

CZ-4C R/B - Visible Passes

Search period start: 17 September 2014 00:00
Search period end: 27 September 2014 00:00
Orbit: 788 x 1215 km, 63.4° (Epoch: 16 September)

Date Brightness Start Highest point End Pass type
(mag) Time Alt. Az. Time Alt. Az. Time Alt. Az.
17 Sep 4.7 06:04:14 10° SSE 06:08:17 22° ESE 06:12:32 10° ENE visible
19 Sep 4.8 05:23:52 10° SSE 05:27:14 17° ESE 05:30:43 10° ENE visible
20 Sep 3.3 05:55:13 10° S 06:00:20 46° ESE 06:05:49 10° NE visible
21 Sep 4.9 04:43:55 10° SE 04:46:11 13° ESE 04:48:30 10° E visible
22 Sep 3.7 05:14:21 10° S 05:19:13 35° ESE 05:24:24 10° NE visible
23 Sep 2.2 05:47:10 10° SSW 05:52:35 88° WNW 05:58:28 10° NNE visible
24 Sep 3.9 04:33:50 11° SSE 04:38:07 28° ESE 04:42:53 10° NE visible
25 Sep 2.3 05:07:33 20° SSW 05:11:23 74° ESE 05:17:13 10° NE visible
26 Sep 4.1 03:55:52 20° SE 03:57:03 22° ESE 04:01:15 10° ENE visible
26 Sep 2.6 05:41:07 17° WSW 05:45:04 45° NW 05:50:43 10° NNE visible
